1529420401.1,54447,21.06,74650.5,17.91,-2.07,-6.39,0,*4C
1529420402.31,54448,21.06,74648.3,17.91,-2.51,-7.19,0,*43
1529420403.5,54449,21.06,74648.8,17.91,-2.23,-7.11,0,*4F
1529420404.74,54450,21.06,74648.5,17.95,-2.71,-8.03,0,*48
1529420405.95,54451,21.06,74650.5,17.95,-2.43,-7.91,0,*4C
1529420407.14,54452,21.06,74652.0,17.95,-3.11,-8.67,0,*4F
1529420408.35,54453,21.06,74648.8,17.99,-2.91,-8.11,0,*4A
1529420409.57,54454,21.06,74652.5,17.99,-3.91,-9.57,0,*4F
1529420410.79,54455,21.06,74650.0,17.97,-4.17,-9.75,0,*49
1529420412.04,54456,21.06,74648.8,17.97,-3.91,-9.45,0,*40
1529420413.31,54457,21.06,74650.8,18.01,-2.75,-8.07,0,*4D
1529420414.53,54458,21.06,74650.0,18.01,-2.35,-8.21,0,*42
1529420415.77,54459,21.06,74652.3,18.01,-2.87,-9.41,0,*4D
1529420416.95,54460,21.06,74650.5,18.03,-2.23,-8.71,0,*49
1529420418.19,54461,21.06,74654.3,18.03,-2.71,-9.41,0,*4D
1529420419.38,54462,21.06,74650.5,18.05,-2.43,-9.05,0,*49
1529420420.63,54463,21.06,74652.3,18.07,-1.29,-7.05,0,*4B
1529420421.84,54464,21.06,74652.5,18.07,-0.57,-6.13,0,*72
1529420423.06,54465,21.06,74650.0,18.09,-0.33,-5.81,0,*77
1529420424.29,54466,21.06,74652.5,18.11,0.17,-5.39,0,*55
1529420425.53,54467,21.06,74648.3,18.11,-0.45,-7.27,0,*73
1529420426.72,54468,21.06,74650.3,18.13,-0.19,-6.89,0,*72
1529420427.9,54469,21.06,74650.5,18.13,0.43,-6.31,0,*52
1529420429.11,54470,21.06,74650.8,18.17,0.59,-7.11,0,*56
1529420430.31,54471,21.06,74650.3,18.17,1.05,-7.19,0,*67
1529420431.55,54472,21.06,74650.5,18.19,0.47,-8.21,0,*59
1529420432.76,54473,21.06,74650.5,18.21,-0.41,-9.41,0,*7F
1529420434.03,54474,21.06,74652.3,18.19,-0.85,-9.61,0,*79
1529420435.23,54475,21.06,74650.3,18.19,-0.61,-9.31,0,*77
1529420436.44,54476,21.06,74646.8,18.17,0.17,-8.41,0,*50
1529420437.64,54477,21.06,74650.0,18.17,0.17,-8.41,0,*51
1529420438.86,54478,21.06,74652.3,18.13,-0.69,-9.49,0,*77
1529420440.1,54479,21.06,74648.8,18.11,-0.37,-9.15,0,*76
1529420441.32,54480,21.06,74650.8,18.07,-0.77,-9.67,0,*76
1529420442.53,54481,21.06,74650.0,18.05,-0.57,-9.37,0,*72
1529420443.73,54482,21.06,74650.5,18.05,-0.45,-8.85,0,*7A
1529420444.96,54483,21.06,74652.0,18.01,-0.85,-9.05,0,*7A
1529420446.2,54484,21.06,74648.8,17.97,-0.49,-8.11,0,*79
1529420447.44,54485,21.06,74652.5,17.97,-0.15,-7.35,0,*78
1529420448.61,54486,21.06,74650.0,17.95,0.01,-7.15,0,*63
1529420449.8,54487,21.06,74650.3,17.91,0.01,-7.27,0,*67
1529420451.03,54488,21.06,74652.3,17.89,-0.85,-8.63,0,*7F
1529420452.26,54489,21.06,74648.8,17.85,-0.93,-8.55,0,*70
1529420453.44,54490,21.06,74654.5,17.83,-1.51,-8.93,0,*4B
1529420454.64,54491,21.06,74654.5,17.83,-1.71,-8.85,0,*4F
1529420455.83,54492,21.06,74650.5,17.79,-2.35,-9.23,0,*47
1529420457.04,54493,21.06,74650.0,17.75,-2.19,-8.81,0,*4D
1529420458.26,54494,21.06,74650.5,17.69,-2.07,-8.29,0,*4A
1529420459.47,54495,21.06,74648.5,17.69,-2.47,-8.29,0,*4F
1529420460.67,54496,21.06,74648.5,17.65,-3.15,-8.45,0,*4C
1529420461.89,54497,21.06,74654.0,17.65,-3.55,-8.45,0,*49
1529420463.1,54498,21.13,74656.3,17.61,-3.75,-8.21,0,*42
1529420464.32,54499,21.06,74650.3,17.57,-3.91,-7.99,0,*40
1529420465.55,54500,21.06,74652.8,17.53,-4.61,-8.07,0,*45
1529420466.79,54501,21.06,74650.0,17.51,-3.59,-6.55,0,*43
1529420467.99,54502,21.06,74648.3,17.49,-3.91,-6.39,0,*47
1529420469.21,54503,21.06,74650.3,17.43,-4.13,-6.05,0,*4E
1529420470.46,54504,21.06,74648.8,17.43,-3.43,-4.65,0,*4F
1529420471.7,54505,21.06,74650.8,17.39,-4.05,-4.69,0,*4A
1529420472.93,54506,21.06,74648.0,17.35,-4.21,-4.33,0,*4C
1529420474.14,54507,21.06,74652.3,17.35,-4.41,-3.83,0,*47
1529420475.39,54508,21.06,74650.5,17.31,-5.19,-4.49,0,*41
1529420476.59,54509,21.06,74648.0,17.29,-6.09,-4.53,0,*40
1529420477.8,54510,21.06,74648.8,17.27,-6.13,-4.17,0,*4D
1529420478.99,54511,21.06,74650.8,17.21,-6.05,-3.35,0,*4A
1529420480.23,54512,21.06,74648.3,17.17,-5.61,-2.51,0,*4E
1529420481.45,54513,21.06,74652.0,17.13,-5.81,-2.19,0,*49
1529420482.69,54514,21.06,74648.3,17.09,-4.73,-0.85,0,*7E
1529420483.87,54515,21.06,74648.0,17.09,-4.49,-0.37,0,*7F
1529420485.08,54516,21.13,74652.0,17.09,-3.19,1.25,0,*61
1529420486.29,54517,21.06,74652.0,17.07,-2.67,1.83,0,*6A
1529420487.55,54518,21.06,74648.8,17.05,-2.07,2.47,0,*6A
1529420488.78,54519,21.06,74648.8,17.01,-2.27,2.21,0,*6D
1529420490.0,54520,21.06,74652.0,16.99,-1.21,3.41,0,*65
1529420491.19,54521,21.06,74652.0,16.99,-0.29,4.37,0,*5B
1529420492.39,54522,21.06,74654.5,16.99,-0.07,4.59,0,*6C
1529420493.62,54523,21.06,74650.0,16.95,0.37,4.97,0,*7D
1529420494.82,54524,21.13,74652.0,16.95,0.43,4.97,0,*79
1529420496.02,54525,21.13,74654.0,16.95,0.21,5.23,0,*72
1529420497.22,54526,21.06,74650.5,16.93,0.05,4.85,0,*4C
1529420498.42,54527,21.13,74648.8,16.95,0.75,5.49,0,*7D
1529420499.63,54528,21.06,74650.0,16.91,1.25,5.95,0,*43
1529420500.82,54529,21.06,74650.5,16.91,1.41,5.63,0,*49
1529420502.05,54530,21.06,74650.5,16.89,1.93,6.25,0,*46
1529420503.3,54531,21.13,74650.5,16.89,1.55,5.67,0,*48
1529420504.5,54532,21.06,74650.8,16.87,2.21,6.29,0,*4C
1529420505.71,54533,21.13,74650.8,16.87,2.43,6.07,0,*45
1529420506.94,54534,21.13,74648.0,16.85,2.95,6.43,0,*4B
1529420508.18,54535,21.13,74648.3,16.83,3.67,6.91,0,*4F
1529420509.38,54536,21.06,74646.5,16.85,4.11,7.01,0,*44
1529420510.59,54537,21.06,74644.0,16.83,4.15,6.91,0,*4F
1529420511.8,54538,21.13,74648.8,16.83,4.23,6.73,0,*49
1529420513.06,54539,21.13,74648.5,16.81,4.59,6.91,0,*4B
1529420514.3,54540,21.06,74644.8,16.81,4.71,6.97,0,*49
1529420515.5,54541,21.13,74648.3,16.77,4.57,6.75,0,*49
1529420516.75,54542,21.13,74648.8,16.75,4.63,6.73,0,*49
1529420517.96,54543,21.13,74644.8,16.75,4.85,7.09,0,*4C
1529420519.16,54544,21.13,74648.5,16.75,5.23,7.37,0,*4B
1529420520.36,54545,21.06,74644.0,16.73,5.51,7.41,0,*48
1529420521.55,54546,21.13,74648.5,16.73,5.41,7.29,0,*44
1529420522.75,54547,21.06,74644.5,16.73,5.67,7.27,0,*4F
1529420523.96,54548,21.06,74644.0,16.73,5.93,7.41,0,*4B
1529420525.14,54549,21.06,74646.0,16.69,6.07,7.37,0,*4E
1529420526.37,54550,21.13,74648.3,16.71,6.53,7.59,0,*46
1529420527.58,54551,21.13,74650.0,16.69,6.47,7.37,0,*43
1529420528.82,54552,21.06,74644.8,16.69,6.35,7.23,0,*40
1529420530.03,54553,21.06,74644.0,16.65,6.33,7.11,0,*4A
1529420531.24,54554,21.06,74646.5,16.65,6.79,7.69,0,*4C
1529420532.48,54555,21.13,74644.3,16.65,6.73,7.61,0,*4F
1529420533.7,54556,21.13,74648.0,16.65,6.79,7.61,0,*46
1529420534.93,54557,21.06,74644.5,16.63,7.01,7.73,0,*4C
1529420536.14,54558,21.13,74644.5,16.61,7.27,8.01,0,*4F
1529420537.32,54559,21.13,74644.0,16.61,7.33,8.05,0,*4F
1529420538.5,54560,21.13,74644.5,16.61,7.33,8.01,0,*41
1529420539.7,54561,21.13,74644.5,16.63,7.37,8.01,0,*46
1529420540.94,54562,21.13,74648.3,16.61,7.27,7.95,0,*44
1529420542.18,54563,21.06,74642.0,16.55,6.87,7.59,0,*49
1529420543.42,54564,21.06,74644.3,16.55,6.93,7.73,0,*43
1529420544.63,54565,21.13,74646.8,16.55,6.97,7.51,0,*46
1529420545.82,54566,21.13,74644.3,16.53,6.93,7.59,0,*4F
1529420547.06,54567,21.13,74644.3,16.51,7.05,7.69,0,*41
1529420548.31,54568,21.13,74644.5,16.51,7.05,7.73,0,*45
1529420549.54,54569,21.13,74646.5,16.49,7.11,7.83,0,*47
1529420550.78,54570,21.13,74644.3,16.47,6.87,7.55,0,*44
1529420551.99,54571,21.13,74646.0,16.45,6.75,7.47,0,*49
1529420553.22,54572,21.13,74644.5,16.41,7.01,7.73,0,*4B
1529420554.42,54573,21.13,74646.5,16.39,6.97,7.59,0,*43
1529420555.6,54574,21.13,74644.5,16.43,6.83,7.51,0,*44
1529420556.82,54575,21.13,74648.0,16.39,7.11,7.79,0,*48
1529420558.06,54576,21.13,74646.8,16.39,7.23,7.87,0,*4B
1529420559.27,54577,21.13,74646.0,16.39,7.47,8.15,0,*4C
1529420560.48,54578,21.13,74650.0,16.37,7.41,8.15,0,*4B
1529420561.72,54579,21.13,74646.3,16.33,7.73,8.45,0,*4A
1529420562.98,54580,21.13,74650.3,16.33,7.83,8.55,0,*42
1529420564.23,54581,21.13,74646.0,16.33,6.97,7.61,0,*4F
1529420565.47,54582,21.13,74644.8,16.29,7.33,7.87,0,*40
1529420566.73,54583,21.13,74646.8,16.29,7.11,7.77,0,*4E
1529420567.95,54584,21.13,74650.3,16.29,7.45,8.05,0,*42
1529420569.14,54585,21.13,74648.5,16.27,7.29,7.79,0,*43
1529420570.33,54586,21.13,74646.8,16.23,7.41,8.01,0,*4A
1529420571.57,54587,21.13,74648.3,16.23,7.95,8.55,0,*43
1529420572.78,54588,21.13,74650.5,16.23,7.65,8.19,0,*4B
1529420573.99,54589,21.13,74650.3,16.23,7.33,7.87,0,*41
1529420575.2,54590,21.13,74646.8,16.23,7.33,7.83,0,*4D
1529420576.39,54591,21.13,74648.3,16.23,7.41,7.79,0,*4C
1529420577.6,54592,21.13,74650.8,16.19,7.79,8.33,0,*4C
1529420578.8,54593,21.13,74650.0,16.19,7.79,8.27,0,*48
1529420580.04,54594,21.13,74644.3,16.19,7.19,7.65,0,*40
1529420581.26,54595,21.13,74644.3,16.15,7.61,8.09,0,*47
1529420582.47,54596,21.13,74648.3,16.15,7.73,8.19,0,*46
1529420583.68,54597,21.13,74648.3,16.15,7.65,8.09,0,*41
1529420584.91,54598,21.13,74648.5,16.15,7.77,8.29,0,*4F
1529420586.15,54599,21.13,74648.3,16.13,7.69,8.09,0,*45
1529420587.39,54600,21.13,74646.8,16.13,7.59,7.95,0,*4F
1529420588.6,54601,21.13,74650.3,16.11,7.61,8.09,0,*4D
1529420589.8,54602,21.13,74652.0,16.11,7.37,7.61,0,*4C
1529420591.03,54603,21.13,74650.8,16.05,7.51,7.87,0,*40
1529420592.2,54604,21.13,74650.5,16.07,7.79,8.23,0,*4E
1529420593.4,54605,21.13,74650.8,16.07,7.33,7.65,0,*4C
1529420594.6,54606,21.13,74652.5,16.03,6.57,6.83,0,*41
1529420595.79,54607,21.13,74648.5,16.01,7.09,7.37,0,*46
1529420597.01,54608,21.13,74648.5,16.01,7.69,7.97,0,*45
1529420598.22,54609,21.13,74646.8,16.01,7.29,7.59,0,*42
1529420599.42,54610,21.13,74650.8,15.99,7.11,7.33,0,*4F
1529420600.62,54611,21.13,74648.5,15.97,7.51,7.79,0,*4A
1529420601.84,54612,21.13,74648.8,15.97,8.01,8.33,0,*42
1529420603.07,54613,21.13,74652.0,15.97,8.09,8.33,0,*4B
1529420604.27,54614,21.13,74650.8,15.97,7.79,8.09,0,*4D
1529420605.47,54615,21.13,74650.5,15.95,7.69,7.97,0,*47
1529420606.69,54616,21.13,74644.5,15.93,7.77,8.15,0,*48
1529420607.91,54617,21.13,74650.8,15.93,7.87,8.15,0,*46
1529420609.13,54618,21.13,74650.3,15.93,7.83,8.09,0,*40
1529420610.35,54619,21.13,74650.0,15.93,7.83,8.15,0,*4C
1529420611.54,54620,21.13,74650.5,15.91,7.37,7.65,0,*43
1529420612.76,54621,21.13,74650.5,15.89,7.01,7.15,0,*49
1529420614.02,54622,21.13,74648.8,15.89,6.69,6.91,0,*48
1529420615.22,54623,21.13,74650.8,15.83,7.27,7.55,0,*41
1529420616.42,54624,21.13,74648.3,15.83,7.83,8.09,0,*4E
1529420617.62,54625,21.13,74648.5,15.81,8.05,8.27,0,*40
1529420618.88,54626,21.13,74646.5,15.81,7.73,7.77,0,*47
1529420620.11,54627,21.13,74648.0,15.81,7.51,7.73,0,*42
1529420621.37,54628,21.13,74650.8,15.79,6.91,7.15,0,*47
1529420622.59,54629,21.13,74648.0,15.75,6.53,6.75,0,*43
1529420623.82,54630,21.13,74648.5,15.75,6.29,6.43,0,*43
1529420625.05,54631,21.13,74650.5,15.71,6.57,6.79,0,*46
1529420626.27,54632,21.13,74648.8,15.71,6.83,7.15,0,*47
1529420627.5,54633,21.13,74648.8,15.69,7.23,7.47,0,*43
1529420628.7,54634,21.13,74648.3,15.69,7.59,7.91,0,*42
1529420629.91,54635,21.13,74648.5,15.69,7.41,7.61,0,*45
1529420631.09,54636,21.13,74650.8,15.69,7.51,7.79,0,*4E
1529420632.32,54637,21.13,74650.8,15.67,7.59,7.87,0,*48
1529420633.55,54638,21.13,74646.0,15.67,7.79,8.13,0,*47
1529420634.81,54639,21.13,74650.0,15.67,7.65,7.91,0,*4E
1529420636.04,54640,21.13,74648.5,15.63,7.45,7.73,0,*4A
1529420637.25,54641,21.13,74652.3,15.61,7.55,7.77,0,*4C
1529420638.45,54642,21.13,74650.5,15.61,7.15,7.33,0,*4B
1529420639.65,54643,21.13,74644.3,15.61,7.05,7.27,0,*4E
1529420640.88,54644,21.13,74650.5,15.57,7.65,7.87,0,*40
1529420642.12,54645,21.13,74652.0,15.57,7.47,7.69,0,*41
1529420643.3,54646,21.13,74648.3,15.57,7.37,7.59,0,*46
1529420644.5,54647,21.13,74648.5,15.55,7.33,7.59,0,*41
1529420645.68,54648,21.13,74650.3,15.53,7.33,7.55,0,*44
1529420646.94,54649,21.13,74648.3,15.55,7.27,7.47,0,*45
1529420648.14,54650,21.13,74648.8,15.53,6.93,7.15,0,*42
1529420649.4,54651,21.13,74648.3,15.51,7.27,7.47,0,*48
1529420650.6,54652,21.13,74654.8,15.49,7.27,7.41,0,*44
1529420651.79,54653,21.13,74652.8,15.49,7.29,7.41,0,*4B
1529420652.99,54654,21.13,74648.5,15.47,7.33,7.65,0,*4F
1529420654.2,54655,21.13,74648.3,15.47,7.79,7.95,0,*4F
1529420655.46,54656,21.13,74648.0,15.45,7.47,7.69,0,*40
1529420656.69,54657,21.13,74650.3,15.45,7.95,8.23,0,*4F
1529420657.93,54658,21.13,74648.3,15.45,7.87,7.91,0,*45
1529420659.16,54659,21.13,74648.5,15.45,7.87,8.05,0,*46
1529420660.37,54660,21.13,74650.3,15.47,7.87,8.15,0,*4F
1529420661.6,54661,21.13,74652.0,15.47,7.87,7.95,0,*49
1529420662.8,54662,21.13,74654.8,15.43,7.97,8.13,0,*4E
1529420664.05,54663,21.13,74650.8,15.45,7.87,7.95,0,*49
1529420665.29,54664,21.13,74648.5,15.45,7.95,8.15,0,*4A
1529420666.48,54665,21.13,74648.5,15.45,8.05,8.23,0,*48
1529420667.68,54666,21.13,74650.5,15.45,8.05,8.23,0,*4B
1529420668.85,54667,21.13,74650.3,15.39,7.97,8.15,0,*40
1529420670.04,54668,21.13,74650.0,15.43,8.23,8.45,0,*47
1529420671.27,54669,21.13,74650.0,15.43,8.51,8.59,0,*4E
1529420672.5,54670,21.13,74648.8,15.39,8.55,8.71,0,*45
1529420673.68,54671,21.13,74652.0,15.43,8.69,8.87,0,*4F
1529420674.89,54672,21.13,74648.8,15.43,8.59,8.69,0,*4F
1529420676.08,54673,21.13,74648.8,15.39,8.51,8.65,0,*47
1529420677.31,54674,21.13,74650.0,15.43,8.75,8.97,0,*46
1529420678.51,54675,21.13,74648.8,15.43,8.59,8.79,0,*49
1529420679.76,54676,21.13,74648.3,15.45,8.37,8.47,0,*49
1529420680.99,54677,21.13,74648.5,15.45,8.59,8.79,0,*4D
1529420682.22,54678,21.13,74644.8,15.45,8.55,8.79,0,*4E
1529420683.43,54679,21.13,74650.5,15.47,8.59,8.79,0,*41
1529420684.68,54680,21.13,74650.5,15.45,9.01,9.11,0,*46
1529420685.93,54681,21.13,74650.5,15.45,9.01,9.15,0,*43
1529420687.16,54682,21.13,74648.3,15.47,8.71,8.93,0,*4B
1529420688.39,54683,21.13,74650.8,15.45,8.59,8.69,0,*47
1529420689.62,54684,21.13,74650.5,15.47,8.59,8.71,0,*4B
1529420690.84,54685,21.13,74648.8,15.47,8.79,9.01,0,*4E
1529420692.07,54686,21.13,74650.3,15.47,8.89,9.01,0,*42
1529420693.25,54687,21.13,74648.5,15.49,8.65,8.83,0,*44
1529420694.48,54688,21.13,74646.5,15.47,9.01,9.11,0,*4C
1529420695.68,54689,21.13,74652.3,15.47,8.69,8.89,0,*42
1529420696.91,54690,21.13,74646.5,15.47,9.01,9.11,0,*45
1529420698.11,54691,21.13,74650.3,15.47,9.03,9.15,0,*42
1529420699.32,54692,21.13,74650.5,15.47,8.89,9.03,0,*45
1529420700.52,54693,21.13,74650.8,15.49,9.15,9.29,0,*46
1529420701.75,54694,21.13,74648.8,15.51,9.19,9.33,0,*4F
1529420702.96,54695,21.13,74650.5,15.51,9.33,9.43,0,*41
1529420704.19,54696,21.13,74650.3,15.51,9.25,9.39,0,*48
1529420705.43,54697,21.13,74650.5,15.51,8.75,8.87,0,*49
1529420706.63,54698,21.13,74650.0,15.51,8.65,8.83,0,*43
1529420707.86,54699,21.13,74648.0,15.51,8.65,8.71,0,*4F
1529420709.09,54700,21.13,74650.3,15.51,8.97,9.07,0,*43
1529420710.27,54701,21.13,74646.3,15.53,9.33,9.43,0,*4F
1529420711.5,54702,21.13,74650.3,15.53,8.89,9.11,0,*4B
1529420712.73,54703,21.13,74648.5,15.55,9.11,9.21,0,*4F
1529420713.94,54704,21.13,74648.8,15.53,9.01,9.21,0,*4F
1529420715.17,54705,21.13,74652.3,15.55,8.89,9.03,0,*49
1529420716.43,54706,21.13,74648.3,15.55,9.01,9.11,0,*48
1529420717.62,54707,21.13,74648.8,15.53,9.07,9.21,0,*4A
1529420718.84,54708,21.13,74646.5,15.55,9.33,9.39,0,*4D
1529420720.07,54709,21.13,74650.8,15.55,9.25,9.35,0,*47
1529420721.31,54710,21.13,74646.3,15.55,8.93,9.03,0,*46
1529420722.52,54711,21.13,74648.3,15.57,8.79,8.89,0,*42
1529420723.75,54712,21.13,74648.8,15.57,9.01,9.11,0,*4F
1529420724.98,54713,21.13,74646.8,15.57,9.11,9.15,0,*4B
1529420726.22,54714,21.13,74648.8,15.59,8.93,9.07,0,*4A
1529420727.43,54715,21.13,74646.3,15.57,9.01,9.21,0,*4B
1529420728.66,54716,21.13,74644.0,15.59,9.25,9.35,0,*45
1529420729.89,54717,21.13,74648.0,15.59,9.35,9.43,0,*44
1529420731.12,54718,21.13,74646.3,15.59,9.61,9.71,0,*4B
1529420732.36,54719,21.13,74646.5,15.59,9.39,9.43,0,*46
1529420733.54,54720,21.13,74648.0,15.61,8.79,8.87,0,*4B
1529420734.76,54721,21.13,74648.5,15.61,8.89,8.97,0,*44
1529420736.02,54722,21.13,74648.0,15.63,9.11,9.19,0,*42
1529420737.25,54723,21.13,74644.5,15.61,9.39,9.39,0,*49
1529420738.45,54724,21.13,74646.8,15.61,8.89,9.07,0,*49
1529420739.66,54725,21.13,74646.3,15.61,9.19,9.21,0,*44
1529420740.86,54726,21.13,74648.0,15.61,9.19,9.29,0,*4F
1529420742.05,54727,21.13,74650.3,15.61,9.29,9.39,0,*4C
1529420743.28,54728,21.13,74648.5,15.61,9.57,9.77,0,*40
1529420744.51,54729,21.13,74650.5,15.63,9.75,9.85,0,*4E
1529420745.74,54730,21.13,74650.5,15.63,9.57,9.75,0,*49
1529420746.98,54731,21.13,74650.8,15.67,9.47,9.49,0,*42
1529420748.21,54732,21.13,74648.5,15.67,9.61,9.67,0,*49
1529420749.41,54733,21.13,74646.8,15.69,9.15,9.25,0,*43
1529420750.62,54734,21.13,74646.3,15.69,8.97,9.07,0,*4F
1529420751.87,54735,21.13,74646.3,15.67,9.11,9.11,0,*48
1529420753.07,54736,21.13,74646.3,15.69,9.39,9.47,0,*4C
1529420754.25,54737,21.13,74646.8,15.69,9.75,9.95,0,*4A
1529420755.49,54738,21.13,74644.0,15.71,9.85,10.03,0,*74
1529420756.72,54739,21.13,74650.3,15.71,9.85,9.95,0,*42
1529420757.9,54740,21.13,74646.3,15.73,9.95,9.99,0,*43
1529420759.1,54741,21.13,74644.0,15.73,9.57,9.67,0,*4D
1529420760.3,54742,21.13,74644.0,15.73,9.43,9.57,0,*48
1529420761.51,54743,21.13,74644.3,15.75,9.33,9.43,0,*4D
1529420762.73,54744,21.13,74644.8,15.77,8.97,9.15,0,*44
1529420763.92,54745,21.13,74646.3,15.77,8.83,8.97,0,*4B
1529420765.15,54746,21.13,74644.0,15.77,9.01,9.11,0,*4C
1529420766.31,54747,21.13,74650.8,15.77,8.69,8.79,0,*4D
1529420767.54,54748,21.13,74644.8,15.75,9.43,9.57,0,*44
1529420768.75,54749,21.13,74644.8,15.77,9.85,9.95,0,*43
1529420769.94,54750,21.13,74646.5,15.77,9.29,9.39,0,*4B
1529420771.14,54751,21.13,74644.3,15.77,9.25,9.35,0,*4A
1529420772.33,54752,21.13,74646.0,15.77,9.47,9.61,0,*4C
1529420773.59,54753,21.13,74644.0,15.79,9.61,9.81,0,*49
1529420774.8,54754,21.13,74646.3,15.79,9.91,10.05,0,*75
1529420776.03,54755,21.13,74646.8,15.79,9.85,9.95,0,*40
1529420777.28,54756,21.13,74646.8,15.81,10.17,10.19,0,*4B
1529420778.47,54757,21.13,74644.3,15.83,9.99,10.17,0,*78
1529420779.69,54758,21.13,74646.5,15.85,9.89,9.99,0,*4E
1529420780.89,54759,21.13,74644.3,15.85,9.47,9.63,0,*48
1529420782.11,54760,21.13,74648.8,15.85,9.99,10.09,0,*75
1529420783.34,54761,21.13,74646.8,15.85,9.67,9.81,0,*4D
1529420784.57,54762,21.13,74646.5,15.89,9.81,9.91,0,*4B
1529420785.8,54763,21.13,74648.0,15.89,10.05,10.13,0,*4C
1529420787.02,54764,21.13,74646.8,15.91,10.17,10.31,0,*41
1529420788.25,54765,21.13,74648.8,15.93,10.09,10.27,0,*4A
1529420789.45,54766,21.13,74644.8,15.93,9.95,10.09,0,*78
1529420790.66,54767,21.13,74644.5,15.95,9.57,9.75,0,*42
1529420791.87,54768,21.13,74644.5,15.95,9.85,10.13,0,*7A
1529420793.05,54769,21.13,74648.8,15.95,9.91,9.99,0,*44
1529420794.25,54770,21.13,74646.3,15.95,9.57,9.67,0,*47
1529420795.45,54771,21.13,74644.8,15.95,9.81,9.91,0,*44
1529420796.63,54772,21.13,74646.8,15.99,9.63,9.75,0,*4D
1529420797.85,54773,21.13,74646.0,15.99,10.13,10.27,0,*4C
1529420799.07,54774,21.13,74648.0,15.99,10.13,10.27,0,*4B
1529420800.26,54775,21.13,74650.0,15.99,9.95,10.13,0,*7B
1529420801.5,54776,21.13,74646.5,16.01,9.85,10.09,0,*70
1529420802.68,54777,21.13,74642.8,16.03,9.99,10.17,0,*71
1529420803.9,54778,21.13,74650.0,16.03,10.09,10.19,0,*41
1529420805.08,54779,21.13,74646.3,16.03,9.99,10.09,0,*70
1529420806.29,54780,21.19,74648.8,16.03,9.85,9.95,0,*46
1529420807.52,54781,21.13,74646.0,16.07,10.27,10.37,0,*43
1529420808.75,54782,21.13,74644.5,16.07,10.27,10.37,0,*40
1529420809.95,54783,21.13,74646.5,16.11,10.51,10.57,0,*41
1529420811.14,54784,21.13,74646.0,16.11,10.51,10.69,0,*4B
1529420812.38,54785,21.19,74648.0,16.13,10.71,10.85,0,*48
1529420813.6,54786,21.13,74648.3,16.15,10.51,10.61,0,*45
1529420814.82,54787,21.19,74650.3,16.19,10.27,10.33,0,*4E
1529420816.07,54788,21.13,74646.0,16.17,10.41,10.51,0,*4B
1529420817.31,54789,21.13,74644.3,16.19,10.65,10.83,0,*4D
1529420818.55,54790,21.13,74644.8,16.21,10.71,10.85,0,*4D
1529420819.8,54791,21.13,74646.8,16.23,10.61,10.65,0,*41
1529420821.05,54792,21.13,74646.0,16.27,10.65,10.75,0,*43
1529420822.26,54793,21.13,74646.8,16.27,10.57,10.69,0,*4E
1529420823.52,54794,21.13,74646.3,16.29,10.17,10.23,0,*4D
1529420824.77,54795,21.13,74646.8,16.31,10.27,10.31,0,*45
1529420826.03,54796,21.13,74644.8,16.31,10.71,10.79,0,*49
1529420827.24,54797,21.13,74646.5,16.31,10.89,11.07,0,*47
1529420828.52,54798,21.19,74650.5,16.33,10.83,10.75,0,*44
1529420829.77,54799,21.13,74644.8,16.33,10.31,10.33,0,*4E
1529420831.0,54800,21.13,74646.0,16.33,10.09,10.09,0,*43
1529420832.23,54801,21.13,74646.8,16.37,10.33,10.33,0,*46
1529420833.45,54802,21.13,74646.3,16.39,10.47,10.57,0,*4A
1529420834.67,54803,21.13,74644.0,16.39,10.37,10.43,0,*49
1529420835.94,54804,21.13,74644.3,16.41,10.31,10.37,0,*44
1529420837.17,54805,21.13,74646.0,16.39,10.19,10.13,0,*46
1529420838.45,54806,21.19,74650.3,16.41,10.31,10.27,0,*47
1529420839.7,54807,21.19,74650.3,16.41,10.69,10.71,0,*48
1529420840.95,54808,21.19,74648.8,16.43,10.31,10.37,0,*4A
1529420842.19,54809,21.13,74646.3,16.45,10.65,10.71,0,*4E
1529420843.44,54810,21.13,74644.3,16.45,10.95,11.03,0,*4D
1529420844.68,54811,21.13,74644.3,16.47,10.99,11.17,0,*47
1529420845.9,54812,21.13,74644.8,16.49,10.99,10.93,0,*47
1529420847.1,54813,21.13,74646.0,16.49,10.93,10.93,0,*4C
1529420848.35,54814,21.19,74646.8,16.51,10.79,10.89,0,*4D
1529420849.59,54815,21.13,74644.5,16.53,10.61,10.71,0,*40
1529420850.82,54816,21.13,74646.3,16.53,10.37,10.41,0,*43
1529420852.07,54817,21.13,74644.8,16.55,10.55,10.71,0,*43
1529420853.33,54818,21.13,74644.3,16.55,10.27,10.37,0,*4B
1529420854.55,54819,21.13,74646.3,16.59,9.99,10.09,0,*76
1529420855.81,54820,21.19,74648.5,16.59,10.09,10.23,0,*45
1529420857.05,54821,21.13,74646.3,16.55,10.09,10.27,0,*4C
1529420858.31,54822,21.13,74640.5,16.59,10.23,10.33,0,*4E
1529420859.51,54823,21.19,74646.8,16.61,10.33,10.47,0,*46
1529420860.74,54824,21.13,74642.3,16.59,10.33,10.47,0,*4A
1529420861.95,54825,21.19,74648.3,16.61,9.85,9.95,0,*42
1529420863.22,54826,21.13,74646.8,16.63,9.85,10.23,0,*76
1529420864.43,54827,21.13,74642.3,16.61,10.43,10.57,0,*44
1529420865.67,54828,21.19,74648.3,16.63,10.43,10.61,0,*4C
1529420866.91,54829,21.13,74644.8,16.63,10.51,10.71,0,*4F
1529420868.14,54830,21.19,74646.0,16.63,10.37,10.51,0,*45
1529420869.36,54831,21.13,74642.5,16.65,10.47,10.71,0,*47
1529420870.58,54832,21.13,74646.0,16.65,10.51,10.71,0,*43
1529420871.8,54833,21.19,74646.0,16.67,10.69,10.89,0,*4C
1529420873.0,54834,21.19,74644.5,16.69,10.13,10.33,0,*49
1529420874.2,54835,21.13,74644.5,16.69,10.33,10.55,0,*4A
1529420875.44,54836,21.13,74646.8,16.69,10.79,11.03,0,*45
1529420876.68,54837,21.13,74646.0,16.73,10.65,10.95,0,*4C
1529420877.89,54838,21.19,74646.0,16.69,10.57,10.89,0,*44
1529420879.12,54839,21.19,74648.0,16.71,10.57,10.89,0,*4C
1529420880.36,54840,21.19,74646.0,16.73,10.61,10.83,0,*4F
1529420881.59,54841,21.13,74642.0,16.73,10.41,10.65,0,*44
1529420882.86,54842,21.19,74646.3,16.75,10.57,10.83,0,*4E
1529420884.13,54843,21.19,74644.8,16.77,10.61,10.79,0,*4D
1529420885.37,54844,21.19,74650.0,16.77,10.55,10.79,0,*4D
1529420886.64,54845,21.19,74646.3,16.77,10.65,10.79,0,*4F
1529420887.88,54846,21.13,74644.3,16.81,10.43,10.57,0,*4D
1529420889.14,54847,21.19,74646.0,16.81,10.23,10.37,0,*4C
1529420890.41,54848,21.13,74642.5,16.77,10.19,10.41,0,*42
1529420891.65,54849,21.19,74646.5,16.81,10.37,10.55,0,*43
1529420892.84,54850,21.19,74646.5,16.83,10.51,10.69,0,*46
1529420894.06,54851,21.19,74646.3,16.85,10.47,10.69,0,*46
1529420895.32,54852,21.19,74646.3,16.85,10.57,10.75,0,*49
1529420896.56,54853,21.19,74646.8,16.85,10.69,10.75,0,*45
1529420897.77,54854,21.19,74644.8,16.87,10.51,10.65,0,*4A
1529420899.0,54855,21.19,74646.0,16.87,10.19,10.33,0,*44
1529420900.24,54856,21.19,74644.3,16.87,10.31,10.61,0,*4A
1529420901.48,54857,21.19,74644.5,16.89,10.51,10.65,0,*47
1529420902.75,54858,21.19,74646.5,16.89,10.23,10.41,0,*4B
1529420904.01,54859,21.19,74646.5,16.89,10.09,10.19,0,*4F
1529420905.26,54860,21.13,74644.5,16.89,10.23,10.33,0,*45
1529420906.49,54861,21.13,74642.0,16.91,10.17,10.27,0,*4F
1529420907.71,54862,21.19,74642.8,16.91,10.23,10.33,0,*4E
1529420908.99,54863,21.19,74646.3,16.93,10.31,10.31,0,*4C
1529420910.2,54864,21.19,74644.0,16.93,10.03,10.03,0,*4B
1529420911.42,54865,21.19,74646.5,16.93,10.17,10.17,0,*4A
1529420912.61,54866,21.13,74642.5,16.91,10.03,9.91,0,*78
1529420913.82,54867,21.19,74646.8,16.93,9.91,9.91,0,*48
1529420915.03,54868,21.13,74644.3,16.95,9.67,9.57,0,*42
1529420916.23,54869,21.19,74644.0,16.93,9.29,9.25,0,*4A